Pecos, TX

1:44 PM CDT on October 20, 2017 (GMT -0500)
Pecos Municipal

Weather History for KPEQ - January, 2013

Change the Weather History Date:

Thursday, January 17, 2013

  Actual Average Record
Temperature  
Mean Temperature 42 °F -  
Max Temperature 57 °F 60 °F 84 °F (1974)
Min Temperature 26 °F 27 °F 12 °F (1957)
Degree Days  
Heating Degree Days 24    
Moisture  
Dew Point 24 °F    
Average Humidity 63    
Maximum Humidity 83    
Minimum Humidity 33    
Precipitation  
Precipitation 0.00 in - - ()
Sea Level Pressure  
Sea Level Pressure 30.45 in    
Wind  
Wind Speed 5 mph (WNW)    
Max Wind Speed 12 mph    
Max Gust Speed -    
Visibility 10 miles    
Events      
Averages and records for this station are not official NWS values.
T = Trace of Precipitation, MM = Missing Value Source: NWS Daily Summary

Daily Weather History Graph

Daily Weather History Graph

Search for Another Location

Airport or City:

Trip Planner

Search our weather history database for the weather conditions in past years. The results will help you decide how hot, cold, wet, or windy it might be!

Date:

Astronomy

Jan. 17, 2013 Rise Set
Actual Time 7:53 AM CST 6:15 PM CST
Civil Twilight 7:26 AM CST 6:41 PM CST
Nautical Twilight 6:57 AM CST 7:11 PM CST
Astronomical Twilight 6:28 AM CST 7:40 PM CST
Moon 11:29 AM CST (1/17) No Moon Set
Length of Visible Light 11h 15m
Length of Day
10h 22m
Waxing Crescent, 38% of the Moon is Illuminated
Jan 17
Waxing Crescent
Jan 18
First Quarter
Jan 26
Full
Feb 3
Last Quarter
Feb 10
New

Hourly Weather History & Observations

Time (CST) Temp. Windchill Dew Point Humidity Pressure Visibility Wind Dir Wind Speed Gust Speed Precip Events Conditions
12:15 AM 36.0 °F 28.0 °F 18.5 °F 49% 30.38 in 10.0 mi West 11.5 mph - N/A   Clear
12:35 AM 35.1 °F 28.6 °F 18.9 °F 52% 30.38 in 10.0 mi West 8.1 mph - N/A   Clear
12:55 AM 33.1 °F 26.9 °F 19.4 °F 57% 30.39 in 10.0 mi NW 6.9 mph - N/A   Clear
1:15 AM 32.9 °F 27.5 °F 19.9 °F 59% 30.39 in 10.0 mi NW 5.8 mph - N/A   Clear
1:35 AM 31.1 °F 26.4 °F 20.3 °F 64% 30.40 in 10.0 mi NNW 4.6 mph - N/A   Clear
2:15 AM 30.2 °F - 21.0 °F 69% 30.41 in 10.0 mi Calm Calm - N/A   Clear
2:35 AM 30.4 °F 25.6 °F 21.7 °F 70% 30.42 in 10.0 mi WNW 4.6 mph - N/A   Clear
2:55 AM 29.8 °F 24.9 °F 22.1 °F 73% 30.42 in 10.0 mi WNW 4.6 mph - N/A   Clear
3:15 AM 29.5 °F 25.9 °F 22.1 °F 74% 30.43 in 10.0 mi WSW 3.5 mph - N/A   Clear
3:35 AM 28.9 °F 25.2 °F 22.1 °F 76% 30.43 in 10.0 mi West 3.5 mph - N/A   Clear
3:55 AM 28.2 °F 23.1 °F 21.9 °F 77% 30.44 in 10.0 mi West 4.6 mph - N/A   Clear
4:15 AM 27.5 °F 23.6 °F 22.1 °F 80% 30.44 in 10.0 mi West 3.5 mph - N/A   Clear
4:35 AM 27.5 °F 20.2 °F 22.1 °F 80% 30.44 in 10.0 mi West 6.9 mph - N/A   Clear
4:55 AM 27.7 °F 20.4 °F 21.9 °F 79% 30.44 in 10.0 mi West 6.9 mph - N/A   Clear
5:15 AM 27.9 °F 22.6 °F 22.1 °F 79% 30.44 in 10.0 mi WSW 4.6 mph - N/A   Clear
5:35 AM 27.3 °F 22.0 °F 22.1 °F 81% 30.44 in 10.0 mi WSW 4.6 mph - N/A   Clear
6:15 AM 27.3 °F 23.4 °F 21.9 °F 80% 30.45 in 10.0 mi West 3.5 mph - N/A   Clear
6:35 AM 27.5 °F 23.6 °F 21.9 °F 80% 30.46 in 10.0 mi West 3.5 mph - N/A   Clear
6:55 AM 26.6 °F 21.2 °F 21.4 °F 81% 30.46 in 10.0 mi West 4.6 mph - N/A   Clear
7:15 AM 26.6 °F 22.6 °F 21.7 °F 82% 30.46 in 10.0 mi SW 3.5 mph - N/A   Clear
7:35 AM 27.0 °F - 22.1 °F 82% 30.47 in 10.0 mi Calm Calm - N/A   Clear
7:55 AM 27.1 °F 23.2 °F 21.7 °F 80% 30.47 in 10.0 mi West 3.5 mph - N/A   Clear
8:15 AM 27.1 °F - 21.6 °F 80% 30.48 in 10.0 mi Calm Calm - N/A   Clear
8:35 AM 28.2 °F - 22.8 °F 80% 30.49 in 10.0 mi Calm Calm - N/A   Clear
8:55 AM 30.0 °F - 23.9 °F 78% 30.50 in 10.0 mi Calm Calm - N/A   Clear
9:15 AM 33.3 °F - 24.4 °F 70% 30.51 in 10.0 mi Calm Calm - N/A   Clear
9:35 AM 35.4 °F 30.5 °F 23.7 °F 62% 30.52 in 10.0 mi NNW 5.8 mph - N/A   Clear
10:35 AM 41.2 °F 37.3 °F 23.7 °F 50% 30.54 in 10.0 mi NW 5.8 mph - N/A   Clear
10:55 AM 43.2 °F 39.0 °F 23.4 °F 46% 30.53 in 10.0 mi NW 6.9 mph - N/A   Clear
11:15 AM 44.4 °F 41.2 °F 23.4 °F 43% 30.53 in 10.0 mi NNW 5.8 mph - N/A   Clear
12:15 PM 48.2 °F - 23.9 °F 39% 30.51 in 10.0 mi Calm Calm - N/A   Clear
12:35 PM 49.8 °F - 25.0 °F 38% 30.50 in 10.0 mi Calm Calm - N/A   Clear
12:55 PM 51.8 °F - 26.6 °F 38% 30.49 in 10.0 mi Calm Calm - N/A   Clear
1:15 PM 53.1 °F - 25.7 °F 35% 30.47 in 10.0 mi Calm Calm - N/A   Clear
2:15 PM 56.1 °F - 27.3 °F 33% 30.44 in 10.0 mi East 5.8 mph - N/A   Clear
2:35 PM 56.5 °F - 27.9 °F 33% 30.44 in 10.0 mi East 4.6 mph - N/A   Clear
2:55 PM 56.8 °F - 28.0 °F 33% 30.43 in 10.0 mi East 8.1 mph - N/A   Clear
3:15 PM 57.2 °F - 28.6 °F 34% 30.43 in 10.0 mi ENE 3.5 mph - N/A   Clear
3:55 PM 57.6 °F - 29.3 °F 34% 30.42 in 10.0 mi ENE 6.9 mph - N/A   Clear
5:35 PM 56.3 °F - 29.3 °F 36% 30.42 in 10.0 mi East 6.9 mph - N/A   Clear
7:15 PM 44.8 °F 40.4 °F 30.2 °F 57% 30.44 in 10.0 mi East 8.1 mph - N/A   Clear
7:55 PM 41.5 °F 37.8 °F 30.2 °F 64% 30.45 in 10.0 mi East 5.8 mph - N/A   Clear
8:15 PM 41.5 °F 38.6 °F 29.8 °F 63% 30.45 in 10.0 mi East 4.6 mph - N/A   Clear
8:55 PM 41.2 °F 39.2 °F 30.4 °F 65% 30.46 in 10.0 mi SE 3.5 mph - N/A   Clear
9:15 PM 39.2 °F 35.0 °F 29.7 °F 69% 30.46 in 10.0 mi SE 5.8 mph - N/A   Clear
9:35 PM 38.7 °F 36.3 °F 29.7 °F 70% 30.46 in 10.0 mi SSE 3.5 mph - N/A   Clear
9:55 PM 36.5 °F 32.7 °F 29.5 °F 76% 30.46 in 10.0 mi SSW 4.6 mph - N/A   Clear
11:15 PM 34.7 °F 30.6 °F 28.6 °F 78% 30.46 in 10.0 mi SSW 4.6 mph - N/A   Clear
11:35 PM 34.2 °F 28.2 °F 28.2 °F 79% 30.46 in 10.0 mi NE 6.9 mph - N/A   Clear
11:55 PM 32.0 °F 26.4 °F 27.5 °F 83% 30.46 in 10.0 mi NE 5.8 mph - N/A   Clear